Weather History for LIRA - August, 2013

Change the Weather History Date:

Thursday, August 22, 2013

  Actual Average (WUND) Record (WUND)
Temperature  
Mean Temperature 76 °F -  
Max Temperature 89 °F 82 °F - (-1)
Min Temperature 64 °F 60 °F - (-1)
Cooling Degree Days 12    
Growing Degree Days 26 (Base 50)    
Moisture  
Dew Point 64 °F    
Average Humidity 69    
Maximum Humidity 94    
Minimum Humidity 40    
Precipitation  
Precipitation 0.00 in 0.08 in - ()
Sea Level Pressure  
Sea Level Pressure 29.96 in    
Wind  
Wind Speed 3 mph ()    
Max Wind Speed 9 mph    
Max Gust Speed 21 mph    
Visibility 6.2 miles    
Events      
Averages and records for this station are not official NWS values.
T = Trace of Precipitation, MM = Missing Value Source: Averaged Metar Reports

Daily Weather History Graph

Daily Weather History Graph

Search for Another Location

Airport or City:

Trip Planner

Search our weather history database for the weather conditions in past years. The results will help you decide how hot, cold, wet, or windy it might be!

Date:

Astronomy

Aug. 22, 2013 Rise Set
Actual Time 6:25 AM CEST 7:59 PM CEST
Civil Twilight 5:55 AM CEST 8:28 PM CEST
Nautical Twilight 5:20 AM CEST 9:03 PM CEST
Astronomical Twilight 4:42 AM CEST 9:41 PM CEST
Moon 8:30 PM CEST (8/22) 7:56 AM CEST (8/22)
Length of Visible Light 14h 32m
Length of Day
13h 34m
Full, 98% of the Moon is Illuminated
Aug 22
Full
Aug 28
Last Quarter
Sep 5
New
Sep 12
First Quarter
Sep 19
Full

Hourly Weather History & Observations

Time (CEST) Temp. Heat Index Dew Point Humidity Pressure Visibility Wind Dir Wind Speed Gust Speed Precip Events Conditions
12:15 AM 71.6 °F - 64.4 °F 78% 29.98 in - North 2.3 mph - N/A   Clear
12:45 AM 69.8 °F - 64.4 °F 83% 29.98 in - North 1.2 mph - N/A   Clear
1:15 AM 69.8 °F - 64.4 °F 83% 29.98 in - NE 1.2 mph - N/A   Clear
1:45 AM 68.0 °F - 64.4 °F 88% 29.98 in - NNE 2.3 mph - N/A   Clear
2:15 AM 68.0 °F - 64.4 °F 88% 29.98 in - NNE 3.5 mph - N/A   Clear
2:45 AM 68.0 °F - 64.4 °F 88% 29.98 in - NE 2.3 mph - N/A   Clear
3:15 AM 68.0 °F - 64.4 °F 88% 29.98 in - NNE 2.3 mph - N/A   Clear
3:45 AM 68.0 °F - 64.4 °F 88% 29.98 in - North 4.6 mph - N/A   Clear
4:15 AM 66.2 °F - 62.6 °F 88% 29.98 in - North 2.3 mph - N/A   Clear
4:45 AM 66.2 °F - 62.6 °F 88% 29.98 in - NE 4.6 mph - N/A   Clear
5:15 AM 66.2 °F - 62.6 °F 88% 29.95 in - NE 4.6 mph - N/A   Clear
5:45 AM 64.4 °F - 62.6 °F 94% 29.95 in - NNE 3.5 mph - N/A   Clear
6:15 AM 66.2 °F - 62.6 °F 88% 29.95 in - North 3.5 mph - N/A   Clear
6:45 AM 66.2 °F - 62.6 °F 88% 29.95 in - NE 2.3 mph - N/A   Clear
7:15 AM 66.2 °F - 62.6 °F 88% 29.98 in - NE 4.6 mph - N/A   Clear
7:45 AM 68.0 °F - 62.6 °F 83% 29.98 in - NE 3.5 mph - N/A   Clear
8:15 AM 69.8 °F - 62.6 °F 78% 29.95 in - NNE 4.6 mph - N/A   Clear
8:45 AM 71.6 °F - 64.4 °F 78% 29.95 in - NE 5.8 mph - N/A   Clear
9:15 AM 73.4 °F - 62.6 °F 69% 29.95 in - NNE 4.6 mph - N/A   Clear
9:45 AM 75.2 °F - 62.6 °F 65% 29.95 in - NNE 4.6 mph - N/A   Clear
10:15 AM 77.0 °F - 62.6 °F 61% 29.95 in - NNE 3.5 mph - N/A   Clear
10:45 AM 78.8 °F - 62.6 °F 57% 29.98 in - NNE 2.3 mph - N/A   Clear
11:15 AM 82.4 °F 83.4 °F 62.6 °F 51% 29.98 in - NNE 2.3 mph - N/A   Clear
11:45 AM 84.2 °F 85.6 °F 64.4 °F 51% 29.98 in - North 2.3 mph - N/A   Clear
12:15 PM 86.0 °F 87.3 °F 64.4 °F 48% 29.98 in - SW 2.3 mph - N/A   Clear
12:45 PM 86.0 °F 86.6 °F 62.6 °F 45% 29.98 in - SE 2.3 mph - N/A   Clear
1:15 PM 89.6 °F 90.1 °F 62.6 °F 40% 29.95 in 6.2 mi South 4.6 mph - N/A   Partly Cloudy
1:45 PM 87.8 °F 88.5 °F 62.6 °F 43% 29.95 in 6.2 mi WSW 6.9 mph - N/A   Partly Cloudy
2:15 PM 87.8 °F 88.5 °F 62.6 °F 43% 29.95 in 6.2 mi West 9.2 mph - N/A   Partly Cloudy
2:45 PM 87.8 °F 89.4 °F 64.4 °F 46% 29.95 in 6.2 mi West 6.9 mph - N/A   Partly Cloudy
3:15 PM 87.8 °F 88.5 °F 62.6 °F 43% 29.95 in 6.2 mi WSW 8.1 mph - N/A   Partly Cloudy
3:45 PM 87.8 °F 88.5 °F 62.6 °F 43% 29.95 in 6.2 mi WSW 5.8 mph - N/A   Partly Cloudy
4:15 PM 87.8 °F 89.4 °F 64.4 °F 46% 29.95 in 6.2 mi West 6.9 mph - N/A   Partly Cloudy
4:45 PM 87.8 °F 88.5 °F 62.6 °F 43% 29.92 in 6.2 mi SW 9.2 mph - N/A   Partly Cloudy
5:15 PM 86.0 °F 87.3 °F 64.4 °F 48% 29.92 in 6.2 mi West 8.1 mph 20.7 mph N/A   Partly Cloudy
5:45 PM 84.2 °F 85.6 °F 64.4 °F 51% 29.92 in 6.2 mi West 9.2 mph - N/A   Partly Cloudy
6:15 PM 82.4 °F 84.6 °F 66.2 °F 58% 29.92 in 6.2 mi West 8.1 mph - N/A   Partly Cloudy
6:45 PM 82.4 °F 84.6 °F 66.2 °F 58% 29.92 in 6.2 mi WSW 5.8 mph - N/A   Partly Cloudy
7:15 PM 82.4 °F 86.3 °F 69.8 °F 66% 29.92 in 6.2 mi WSW 5.8 mph - N/A   Partly Cloudy
7:45 PM 80.6 °F 83.2 °F 68.0 °F 65% 29.92 in 6.2 mi SW 5.8 mph - N/A   Partly Cloudy
8:15 PM 78.8 °F - 69.8 °F 74% 29.92 in 6.2 mi SW 3.5 mph - N/A   Partly Cloudy
8:45 PM 77.0 °F - 68.0 °F 74% 29.95 in 6.2 mi SW 4.6 mph - N/A   Partly Cloudy
9:15 PM 75.2 °F - 66.2 °F 73% 29.95 in - SW 3.5 mph - N/A   Clear
9:45 PM 75.2 °F - 66.2 °F 73% 29.95 in - SSW 2.3 mph - N/A   Clear
10:15 PM 75.2 °F - 68.0 °F 78% 29.95 in - SSE 2.3 mph - N/A   Clear
10:45 PM 75.2 °F - 68.0 °F 78% 29.95 in - South 2.3 mph - N/A   Clear
11:15 PM 75.2 °F - 68.0 °F 78% 29.95 in - SSW 2.3 mph - N/A   Clear
11:45 PM 73.4 °F - 66.2 °F 78% 29.98 in - South 1.2 mph - N/A   Clear